Upstream stations:
Downstream station:
SHEF ID: WETO2 North Canadian River near Wetumk
STATION TYPE:
Regulating: Stage = 14.00, Flow = 9630
PRECIP STAGE RIV-FLOW BAT-LOAD
in ft cfs volt
Ccp-Rev Ccp-Rev Ccp-Rev Ccp-Rev
(US/Central)
01/31 00:00 0.00 5.64 211 11.53
01/31 01:00 0.00 5.64 211 11.46
01/31 02:00 0.00 5.63 208 11.46
01/31 03:00 0.00 5.63 208 11.46
01/31 04:00 0.00 5.63 208 11.46
01/31 05:00 0.00 5.63 208 11.37
01/31 06:00 0.00 5.63 208 11.37
01/31 07:00 0.00 5.63 208 11.37
01/31 08:00 0.00 5.63 208 11.37
01/31 09:00 0.00 5.65 214 11.37
01/31 10:00 0.00 5.65 214 11.37
01/31 11:00 0.04 5.64 211 11.53
01/31 12:00 0.00 5.65 214 11.53
01/31 13:00 0.00 5.64 211 11.53
01/31 14:00 0.00 5.63 208 11.61
01/31 15:00 0.00 5.63 208 11.77
01/31 16:00 0.00 5.62 204 11.77
01/31 17:00 0.00 5.62 204 11.77
01/31 18:00 0.00 5.62 204 11.70
01/31 19:00 0.00 5.62 204 11.70
01/31 20:00 0.00 5.61 202 11.70
01/31 21:00 0.00 5.60 199 11.61
01/31 22:00 0.00 5.60 199 11.61
01/31 23:00 0.00 5.60 199 11.61